Preview of NWS' New Version of Forecast
This preview is not operational and should not be used for support decisions.

Regional Weather Roundup (RWR)

Issued by National Weather Service (NWS)

                            
000
ASUS46 KSEW 220910
RWRWA 

WASHINGTON REGIONAL WEATHER ROUNDUP
NATIONAL WEATHER SERVICE SEATTLE WA
200 AM PDT MON JUL 22 2019

NOTE:"FAIR" INDICATES FEW OR NO CLOUDS BELOW 12,000 FEET WITH NO 
SIGNIFICANT WEATHER AND/OR OBSTRUCTIONS TO VISIBILITY.

WAZ507-509-555>559-221000-
SEATTLE, TACOMA, EVERETT, AND VICINITY
  
CITY           SKY/WX    TMP DP  RH WIND       PRES   REMARKS
EVERETT        CLEAR     60  46  59 CALM      29.98S                  
BOEING FIELD   CLEAR     65  48  54 CALM      29.98R                  
RENTON         CLEAR     65  52  62 CALM      29.97R                  
SEATAC AIRPORT PTCLDY    64  49  57 CALM      29.98S                  
JBLM-MCCHORD   PTCLDY    63  52  67 S3        29.98S                  
PUYALLUP       FAIR      59  54  82 CALM      29.99R                  
BREMERTON      CLEAR     53  49  86 SW5       29.98S                  
JBLM-FT LEWIS  PTCLDY    63  51  66 SW6       29.98R                  
TACOMA NARROWS CLEAR     60  49  66 W5        29.99R                  
$$
 
WAZ001-503-506-510-514-515-221000-
NORTH INTERIOR
  
CITY           SKY/WX    TMP DP  RH WIND       PRES   REMARKS
BELLINGHAM     CLEAR     63  51  65 S7        29.94R                  
FRIDAY HARBOR  CLEAR     52  48  86 N3        29.95R                  
EASTSOUND      CLEAR     61  52  72 S6        29.93R                  
PORT ANGELES   CLEAR     59  45  59 W10       29.97S                  
EDIZ HOOK      FAIR      58  47  64 W15G22    29.96S                  
PORT TOWNSEND  FAIR      52  48  87 CALM      29.96S                  
NAS WHIDBEY    PTCLDY    59  51  75 SW6       30.00R                  
ARLINGTON        N/A     56  48  74 CALM      29.98R                  
BURLINGTON       N/A     57  50  77 S6        29.96S                  
$$
 
WAZ020-022-039-040-504-511-512-221000-
SOUTHWEST INTERIOR
  
CITY           SKY/WX    TMP DP  RH WIND       PRES   REMARKS
SHELTON        CLEAR     58  52  80 W12       29.96S                  
OLYMPIA        CLEAR     57  48  72 S3        29.98S                  
CHEHALIS       FAIR      59  55  88 SW6       30.00S                  
KELSO          CLEAR     60  55  83 CALM      30.01S                  
VANCOUVER      CLEAR     64  49  57 NW3       29.98R                  
SCAPPOOSE, OR  CLEAR     61  49  64 W3        29.97R                  
PORTLAND, OR   CLEAR     65  50  58 NW6       29.98S                  
$$
 
WAZ021-516-517-221000-
WASHINGTON COAST
  
CITY           SKY/WX    TMP DP  RH WIND       PRES   REMARKS
FORKS          PTCLDY    51  49  92 CALM      30.01R                  
HOQUIAM        CLEAR     59  58  96 W7        30.01S                  
ASTORIA, OR    PTCLDY    55  53  93 SE5       30.02S                  
$$
 
WAZ019-023-024-040-567>569-221000-
CASCADE MOUNTAINS AND COLUMBIA GORGE
  
CITY           SKY/WX    TMP DP  RH WIND       PRES   REMARKS
STAMPEDE PASS  CLEAR     64  42  44 CALM      30.08F                  
TROUTDALE, OR  PTCLDY    64  51  62 W3        29.98R                  
HOOD RIVER, OR MOSUNNY   64  52  63 CALM      29.93S                  
THE DALLES, OR PTCLDY    73  54  51 NW12      29.88S                  
$$

WAZ026-027-041>044-520-521-221000-
EAST SLOPES
  
CITY           SKY/WX    TMP DP  RH WIND       PRES   REMARKS
OMAK           CLEAR     61  38  42 NW5       29.98S                  
WENATCHEE      PTCLDY    69  44  40 SW14      29.95S                  
ELLENSBURG     PTCLDY    59  45  59 CALM      29.96F                  
YAKIMA         PTCLDY    64  46  52 W5        29.93R                  
SUNNYSIDE ARPT MOSUNNY   57  53  85 N3        29.89S                  
YAKIMA TC      PTSUNNY   64  34  32 CALM      29.92F                  
$$

WAZ028-034-035-221000-
COLUMBIA BASIN
  
CITY           SKY/WX    TMP DP  RH WIND       PRES   REMARKS
EPHRATA        MOCLDY    75  34  22 NW8       29.91F                  
MOSES LAKE     MOCLDY    70  40  33 N8        29.92S                  
PASCO          CLEAR     67  52  58 CALM      29.86S                  
RICHLAND ARPT  MOSUNNY   70  48  45 CALM      29.86                   
HERMISTON, OR  CLEAR     67  43  41 S7        29.87R                  
$$

WAZ036>038-221000-
NORTHEAST WASHINGTON
  
CITY           SKY/WX    TMP DP  RH WIND       PRES   REMARKS
SPOKANE GEIGER MOCLDY    68  43  40 E5        30.00S                  
SPOKANE FELTS  CLEAR     60  50  69 E3        29.99S                  
FAIRCHILD AFB  CLEAR     67  42  38 N6        30.00S                  
COEURDALENE,ID CLEAR     63  49  60 E7        30.02R                  
DEER PARK      CLEAR     60  41  49 N5        30.00S                  
$$

WAZ029>033-221000-
SOUTHEAST WASHINGTON
  
CITY           SKY/WX    TMP DP  RH WIND       PRES   REMARKS
PULLMAN        CLEAR     66  41  40 NE3       30.00R                  
LEWISTON, ID   PTCLDY    68  39  34 SE3       29.93S                  
WALLA WALLA    MOCLDY    72  43  35 SE5       29.88F                  
PENDLETON, OR  MOCLDY    67  42  40 CALM      29.89F                  
$$